[[{"header":{"parameterUnit":"m.s-1","parameterCategory":1,"la1":30.2991,"la2":30.254,"lo1":-89.0895,"lo2":-89.0444,"dy":0.0017,"dx":0.0017,"nx":28,"ny":28,"refTime":"2026-02-15T09:00:00:Z","depth":0,"parameterNumber":2,"parameterNumberName":"U-component_of_WINDS"},"data":[0,0,0,0,0,0,0,0,0,0,0,0,0,0,0,0,0,0,0,0,0,0,0,0,0,0,0,0,0,0,0,0,0,0,0,0,0,0,0,0,0,0,0,0,0,0,0,0,0,0,0,0,0,0,0,0,0,0,-0.5565,-0.5565,0,-0.5561,-0.556,-0.556,-0.555,-0.555,-0.555,-0.5549,-0.5546,-0.5546,-0.5546,0,0,0,0,0,0,0,0,0,0,0,0,0,-0.5564,-0.5564,-0.5565,-0.5565,-0.5565,-0.5561,-0.556,-0.556,-0.555,-0.555,-0.555,-0.5549,-0.5546,-0.5546,-0.5546,0,0,0,0,0,0,0,0,0,0,0,0,0,-0.5562,-0.5564,-0.5565,-0.5559,-0.5558,-0.5561,-0.556,-0.556,-0.555,-0.555,-0.555,-0.5549,-0.5546,-0.5546,-0.5546,-0.5554,0,0,-0.5547,-0.5547,0,0,0,0,0,0,0,0,-0.5562,-0.5562,-0.556,-0.5559,-0.5559,-0.5555,-0.5559,-0.5558,-0.555,-0.5553,-0.5549,-0.5549,-0.5549,-0.5549,-0.5549,-0.5554,-0.5553,-0.5547,-0.5547,-0.5547,-0.5547,0,0,0,0,0,0,0,-0.5562,-0.5562,-0.5563,-0.556,-0.5559,-0.5557,-0.5556,-0.5559,-0.5553,-0.5553,-0.5552,-0.5552,-0.5549,-0.5549,-0.5549,-0.5553,-0.5547,-0.5547,-0.5547,-0.5547,-0.5563,-0.5563,0,0,0,0,0,0,-0.5563,-0.5563,-0.5563,-0.5563,-0.556,-0.5557,-0.5556,-0.5557,-0.5553,-0.5552,-0.5552,-0.5551,-0.5549,-0.5549,-0.5549,-0.5557,-0.5547,-0.5547,-0.5547,-0.5562,-0.5563,-0.5563,0,0,0,0,0,0,-0.5563,-0.5564,-0.5563,-0.5563,-0.5562,-0.5557,-0.5558,-0.5557,-0.5557,-0.5553,-0.5552,-0.5553,-0.5549,-0.5549,-0.5552,-0.5557,-0.5547,-0.5547,-0.5562,-0.5563,-0.5563,-0.5574,0,0,0,0,0,0,-0.5563,-0.5564,-0.5567,-0.5563,-0.5562,-0.5567,-0.5558,-0.5557,-0.5557,-0.5556,-0.5553,-0.5553,-0.5548,-0.5552,-0.5553,-0.5557,-0.5547,-0.5562,-0.5562,-0.5563,-0.5573,-0.5574,-0.5576,0,0,0,0,0,-0.5563,-0.557,-0.5567,-0.5567,-0.5566,-0.5567,-0.5567,-0.5562,-0.5558,-0.556,-0.5557,-0.5553,-0.5556,-0.5553,-0.5553,-0.5557,-0.5561,-0.5562,-0.5563,-0.5572,-0.5574,-0.5576,0,0,0,0,0,0,-0.5575,-0.5569,-0.5566,-0.5571,-0.557,-0.5565,-0.5569,-0.5564,-0.5564,-0.5563,-0.5557,-0.5557,-0.5561,-0.556,-0.5556,-0.5564,-0.5558,-0.5559,-0.5565,-0.5567,-0.5568,-0.5569,-0.5548,0,0,0,0,0,-0.5578,-0.558,-0.5575,-0.558,-0.5579,-0.5574,-0.5575,-0.5571,-0.5569,-0.5569,-0.5566,-0.5564,-0.5565,-0.5566,-0.5566,-0.5572,-0.5571,-0.5576,-0.5577,-0.5578,-0.5579,-0.5581,-0.5583,-0.5566,-0.5566,-0.5566,0,0,-0.5585,-0.5582,-0.5583,-0.5582,-0.5581,-0.5582,-0.5574,-0.5576,-0.5577,-0.5569,-0.5572,-0.557,-0.5568,-0.5573,-0.5575,-0.5572,-0.5583,-0.5579,-0.558,-0.558,-0.5582,-0.5584,-0.5585,-0.5566,-0.5566,-0.5566,0,0,-0.5598,-0.5596,-0.56,-0.5598,-0.5595,-0.5592,-0.5593,-0.5589,-0.5587,-0.559,-0.5584,-0.5585,-0.5586,-0.5585,-0.5584,-0.5595,-0.5591,-0.5596,-0.5603,-0.5606,-0.5607,-0.5608,-0.5612,-0.5613,-0.5597,-0.5597,-0.5597,0,-0.5607,-0.5609,-0.5603,-0.5605,-0.5604,-0.5596,-0.56,-0.5599,-0.5597,-0.5596,-0.5593,-0.5594,-0.5592,-0.5596,-0.5598,-0.5598,-0.5599,-0.5596,-0.5607,-0.5608,-0.561,-0.5613,-0.5614,-0.5597,-0.5597,-0.5597,-0.5597,0,-0.5619,-0.5621,-0.5624,-0.5621,-0.5621,-0.5624,-0.5619,-0.5619,-0.5615,-0.5612,-0.5614,-0.5612,-0.5611,-0.5612,-0.5608,-0.5615,-0.5613,-0.5608,-0.5602,-0.5612,-0.5615,-0.5616,-0.5598,-0.5598,-0.5598,-0.5597,0,0,-0.564,-0.5633,-0.5635,-0.5633,-0.5629,-0.563,-0.5632,-0.5631,-0.5632,-0.563,-0.5632,-0.5633,-0.5628,-0.5628,-0.5624,-0.5626,-0.5634,-0.5621,-0.5621,-0.5623,-0.5641,-0.5644,-0.5646,-0.5631,-0.5631,-0.5631,-0.5641,0,-0.5652,-0.5656,-0.565,-0.5655,-0.5656,-0.5648,-0.565,-0.5647,-0.5644,-0.5644,-0.564,-0.5641,-0.5635,-0.5635,-0.5636,-0.5633,-0.5638,-0.5632,-0.5632,-0.5632,-0.5633,-0.5648,-0.5651,-0.5661,-0.5642,-0.5642,-0.5642,0,-0.5667,-0.5665,-0.567,-0.5665,-0.5665,-0.5667,-0.5665,-0.5665,-0.5662,-0.566,-0.5658,-0.5653,-0.5655,-0.5649,-0.5651,-0.5647,-0.5647,-0.5645,-0.5645,-0.5645,-0.5638,-0.5648,-0.5664,-0.5665,-0.5644,-0.5644,-0.5644,0,-0.5681,-0.568,-0.5683,-0.5682,-0.5676,-0.5677,-0.5675,-0.5672,-0.5671,-0.5669,-0.5669,-0.5668,-0.5667,-0.5666,-0.566,-0.5656,-0.5663,-0.5656,-0.566,-0.5661,-0.5662,-0.5662,-0.5678,-0.5662,-0.5662,-0.5662,-0.5662,0,-0.5695,-0.5698,-0.5689,-0.5691,-0.5694,-0.5687,-0.569,-0.5687,-0.5684,-0.5685,-0.5678,-0.5678,-0.5671,-0.5671,-0.5667,-0.5669,-0.5668,-0.5666,-0.5665,-0.5667,-0.5667,-0.5667,-0.5666,-0.5663,-0.5662,-0.5662,-0.5662,0,-0.5712,-0.5706,-0.5708,-0.5702,-0.5701,-0.5703,-0.5698,-0.5699,-0.5695,-0.5696,-0.5696,-0.5689,-0.5688,-0.5683,-0.5681,-0.5678,-0.5682,-0.5679,-0.5683,-0.5682,-0.5686,-0.5686,-0.5702,-0.5704,-0.5687,-0.5687,-0.5687,0,-0.5721,-0.5724,-0.5717,-0.5717,-0.5715,-0.5715,-0.5714,-0.5707,-0.5706,-0.5702,-0.5704,-0.5702,-0.5701,-0.57,-0.5695,-0.5694,-0.5691,-0.5697,-0.5691,-0.5692,-0.5691,-0.5691,-0.5691,-0.5699,-0.5699,-0.5699,-0.5699,0,-0.5738,-0.5735,-0.5734,-0.5732,-0.5731,-0.5729,-0.5726,-0.5726,-0.5719,-0.5718,-0.5717,-0.5716,-0.5714,-0.5712,-0.571,-0.5707,-0.5702,-0.5701,-0.5702,-0.5704,-0.5705,-0.5704,-0.5686,-0.5701,-0.5701,-0.57,-0.57,-0.57,-0.5752,-0.5753,-0.5748,-0.5747,-0.5744,-0.5742,-0.5742,-0.5738,-0.5737,-0.5734,-0.573,-0.573,-0.5726,-0.5721,-0.5719,-0.5718,-0.5715,-0.5717,-0.5717,-0.5717,-0.5718,-0.5705,-0.5718,-0.5718,-0.5718,-0.5718,-0.5718,0,-0.5768,-0.5765,-0.5763,-0.576,-0.5759,-0.5753,-0.575,-0.5749,-0.5749,-0.5746,-0.5744,-0.5742,-0.5741,-0.5735,-0.5733,-0.5734,-0.5731,-0.5733,-0.5733,-0.5732,-0.5721,-0.5721,-0.5735,-0.5735,-0.5735,-0.5735,-0.5735,-0.5735,-0.5776,-0.5778,-0.5774,-0.5774,-0.577,-0.577,-0.5768,-0.5766,-0.5763,-0.5761,-0.576,-0.5756,-0.5752,-0.5749,-0.5747,-0.5745,-0.5745,-0.5748,-0.5745,-0.5735,-0.5733,-0.5732,-0.5731,-0.5748,-0.5748,-0.5756,-0.5756,-0.5756]},{"header":{"parameterUnit":"m.s-1","parameterCategory":1,"la1":30.2991,"la2":30.254,"lo1":-89.0895,"lo2":-89.0444,"dy":0.0017,"dx":0.0017,"nx":28,"ny":28,"refTime":"2026-02-15T09:00:00:Z","depth":0,"parameterNumber":3,"parameterNumberName":"V-component_of_WINDS"},"data":[0,0,0,0,0,0,0,0,0,0,0,0,0,0,0,0,0,0,0,0,0,0,0,0,0,0,0,0,0,0,0,0,0,0,0,0,0,0,0,0,0,0,0,0,0,0,0,0,0,0,0,0,0,0,0,0,0,0,-4.9189,-4.919,0,-4.9273,-4.9274,-4.9275,-4.9241,-4.9239,-4.9238,-4.9236,-4.9317,-4.9321,-4.9324,0,0,0,0,0,0,0,0,0,0,0,0,0,-4.8997,-4.9,-4.9189,-4.919,-4.9191,-4.9273,-4.9274,-4.9275,-4.9242,-4.9239,-4.9237,-4.9235,-4.9315,-4.932,-4.9325,0,0,0,0,0,0,0,0,0,0,0,0,0,-4.908,-4.9001,-4.9189,-4.9184,-4.9185,-4.9273,-4.9274,-4.9275,-4.9242,-4.9239,-4.9236,-4.9234,-4.9314,-4.932,-4.9326,-4.9421,0,0,-4.9344,-4.9346,0,0,0,0,0,0,0,0,-4.9075,-4.9087,-4.9184,-4.9185,-4.9185,-4.9244,-4.9236,-4.9324,-4.9243,-4.922,-4.9236,-4.9232,-4.9294,-4.9302,-4.9324,-4.9425,-4.9428,-4.9344,-4.9348,-4.935,-4.9352,0,0,0,0,0,0,0,-4.907,-4.9083,-4.9222,-4.9185,-4.9186,-4.9177,-4.9186,-4.9252,-4.9273,-4.9222,-4.922,-4.9231,-4.9294,-4.9318,-4.9326,-4.9429,-4.9344,-4.9349,-4.9353,-4.9355,-4.9615,-4.9618,0,0,0,0,0,0,-4.9064,-4.9079,-4.9219,-4.9224,-4.9122,-4.9183,-4.9193,-4.9228,-4.9272,-4.9276,-4.9233,-4.9229,-4.9309,-4.9319,-4.9328,-4.9444,-4.935,-4.9356,-4.9359,-4.9611,-4.9615,-4.9619,0,0,0,0,0,0,-4.906,-4.9077,-4.9216,-4.9151,-4.9168,-4.919,-4.9229,-4.9231,-4.9255,-4.928,-4.9283,-4.9254,-4.9308,-4.932,-4.9399,-4.9447,-4.9359,-4.9364,-4.9608,-4.9613,-4.9617,-4.9676,0,0,0,0,0,0,-4.9055,-4.9076,-4.9113,-4.9152,-4.9172,-4.9286,-4.9232,-4.9235,-4.9266,-4.9261,-4.9301,-4.9304,-4.9306,-4.939,-4.9405,-4.9453,-4.9369,-4.9603,-4.961,-4.9616,-4.967,-4.9683,-4.9693,0,0,0,0,0,-4.9048,-4.9124,-4.9115,-4.9132,-4.9219,-4.9289,-4.93,-4.9302,-4.927,-4.9307,-4.9324,-4.9303,-4.9439,-4.9399,-4.9415,-4.9466,-4.96,-4.9608,-4.9615,-4.9665,-4.968,-4.9693,0,0,0,0,0,0,-4.9087,-4.9129,-4.9119,-4.9211,-4.9247,-4.9283,-4.933,-4.9318,-4.9362,-4.9356,-4.9355,-4.9364,-4.9446,-4.9464,-4.9418,-4.9561,-4.9515,-4.9526,-4.9547,-4.9562,-4.9573,-4.9567,-4.9374,0,0,0,0,0,-4.9107,-4.9162,-4.9195,-4.9273,-4.9292,-4.9308,-4.9339,-4.9338,-4.9374,-4.9389,-4.9411,-4.9446,-4.9497,-4.953,-4.9578,-4.9673,-4.9681,-4.9716,-4.9727,-4.9737,-4.9746,-4.9799,-4.9815,-4.9644,-4.9643,-4.9643,0,0,-4.9148,-4.9177,-4.9212,-4.9282,-4.931,-4.9366,-4.9321,-4.9382,-4.9423,-4.9397,-4.9474,-4.9492,-4.9531,-4.9619,-4.9659,-4.9636,-4.9796,-4.9746,-4.9753,-4.9758,-4.9808,-4.9825,-4.9839,-4.9649,-4.9648,-4.9647,0,0,-4.925,-4.9279,-4.9347,-4.9377,-4.9421,-4.9432,-4.9448,-4.9488,-4.9499,-4.9577,-4.9559,-4.9608,-4.9695,-4.9725,-4.9751,-4.9868,-4.9851,-4.9884,-4.9944,-4.9996,-5.0009,-5.0021,-5.0064,-5.0079,-4.9893,-4.9893,-4.9893,0,-4.9295,-4.938,-4.9384,-4.9447,-4.9479,-4.9461,-4.953,-4.9558,-4.9615,-4.9637,-4.9611,-4.9722,-4.9747,-4.9842,-4.9871,-4.9893,-4.9912,-4.9879,-5.0007,-5.0019,-5.003,-5.0071,-5.0087,-4.9897,-4.9896,-4.9896,-4.9896,0,-4.9433,-4.9493,-4.9543,-4.9601,-4.9639,-4.9705,-4.9718,-4.9755,-4.9751,-4.9765,-4.9845,-4.9874,-4.9929,-4.9951,-4.9947,-5.0047,-5.0032,-5.0007,-4.996,-5.0051,-5.0089,-5.0104,-4.9902,-4.9901,-4.99,-4.9899,0,0,-4.9561,-4.9623,-4.9641,-4.9669,-4.9717,-4.9762,-4.9828,-4.9884,-4.9916,-4.9956,-5.0011,-5.0087,-5.0065,-5.0095,-5.0094,-5.014,-5.0233,-5.0109,-5.011,-5.0132,-5.0346,-5.0365,-5.0383,-5.0222,-5.0225,-5.0227,-5.0343,0,-4.9669,-4.9786,-4.9792,-4.9898,-4.9954,-4.9939,-4.9996,-5.0032,-5.0047,-5.0095,-5.0111,-5.0165,-5.0132,-5.015,-5.0194,-5.0212,-5.0275,-5.0204,-5.0273,-5.0275,-5.0264,-5.0402,-5.0422,-5.0529,-5.0357,-5.036,-5.0362,0,-4.9809,-4.9857,-4.9969,-5.0012,-5.0036,-5.0088,-5.0141,-5.0187,-5.0228,-5.0235,-5.0271,-5.0264,-5.0331,-5.0283,-5.0375,-5.0326,-5.0355,-5.0368,-5.0372,-5.0378,-5.0324,-5.0413,-5.0563,-5.058,-5.0385,-5.0383,-5.0382,0,-4.9892,-4.9985,-5.0065,-5.0088,-5.014,-5.0177,-5.02,-5.0237,-5.0271,-5.0317,-5.0339,-5.0391,-5.042,-5.046,-5.0468,-5.0431,-5.0561,-5.0512,-5.0568,-5.0569,-5.0596,-5.0594,-5.0754,-5.0614,-5.0614,-5.0613,-5.0613,0,-5.0012,-5.0081,-5.0103,-5.0152,-5.023,-5.0237,-5.0313,-5.0333,-5.0368,-5.042,-5.0409,-5.0458,-5.0465,-5.0516,-5.0522,-5.0598,-5.0611,-5.0619,-5.0619,-5.062,-5.0619,-5.0638,-5.0631,-5.0618,-5.0617,-5.0616,-5.0615,0,-5.0118,-5.0135,-5.0222,-5.0265,-5.0277,-5.0333,-5.0369,-5.0416,-5.0431,-5.0498,-5.0513,-5.0536,-5.0595,-5.0607,-5.0676,-5.0681,-5.0772,-5.0765,-5.0759,-5.0759,-5.0814,-5.0809,-5.0992,-5.1017,-5.0861,-5.0862,-5.0863,0,-5.0193,-5.0247,-5.0297,-5.0333,-5.0358,-5.0415,-5.0451,-5.0459,-5.0497,-5.0548,-5.0589,-5.0648,-5.0696,-5.0791,-5.0813,-5.0866,-5.0861,-5.0921,-5.0868,-5.0868,-5.0863,-5.086,-5.0865,-5.0931,-5.0933,-5.0934,-5.0935,0,-5.0325,-5.0331,-5.0384,-5.0441,-5.0485,-5.0529,-5.0571,-5.0601,-5.0615,-5.0658,-5.072,-5.0757,-5.083,-5.0888,-5.0943,-5.0965,-5.0953,-5.0952,-5.0968,-5.0969,-5.0964,-5.0969,-5.0787,-5.0948,-5.0946,-5.0945,-5.0945,-5.0944,-5.0418,-5.0466,-5.051,-5.057,-5.0603,-5.0644,-5.0691,-5.0713,-5.0766,-5.0827,-5.0829,-5.0897,-5.0937,-5.1009,-5.1035,-5.1088,-5.1068,-5.1091,-5.1097,-5.1103,-5.1109,-5.0956,-5.1097,-5.1097,-5.1097,-5.1096,-5.1096,0,-5.055,-5.0578,-5.0633,-5.0695,-5.0742,-5.0729,-5.0776,-5.0816,-5.0877,-5.0917,-5.0965,-5.1037,-5.1094,-5.1122,-5.1179,-5.1216,-5.1212,-5.123,-5.1228,-5.1233,-5.1122,-5.1103,-5.1233,-5.1233,-5.1233,-5.1233,-5.1233,-5.1233,-5.0624,-5.0706,-5.0718,-5.0816,-5.0843,-5.0912,-5.094,-5.0978,-5.101,-5.1092,-5.1141,-5.1159,-5.1194,-5.1254,-5.1306,-5.1312,-5.1334,-5.1355,-5.1359,-5.1255,-5.1241,-5.1228,-5.121,-5.136,-5.136,-5.1466,-5.1467,-5.1468]}]]